CRC

Crooked River Challenge - Loft Fly

Station: Inventory - T Race

Distance: 0.1 Miles    

Release: 30-Jun-2020 06:00

Weather Release:    Arrival:

Wind at Release:     Wind at Arrival:

Temp at Release: °    Temp at Arrival: °

Lofts: 191

Birds: 1020

Clocked: 1021

Good Luck to Everyone!
Drops Pos Breeder Pigeon Name Color Sex Ent Arrival Speed To Win Elg PdOpB
1 R & S Loft Of Tx - TX 0105-AU20-RS BC H 1 10:01:48.11 0.728 00:00:00 Yes
1 Chumash - CA 7279-AU20-JEDD BB H 1 10:01:49.88 0.728 00:00:00 Yes
1 Elton Dinga - TX 11002-AU20-AA Wouters 715 x Roziers 564 BB H 1 10:01:52.30 0.728 00:00:00 Yes
1 Thunder Birds/Rodriguez Breeding Loft - TX 27761-AU20-ARPU Another Sure Ball! BB C 1 10:01:55.42 0.728 00:00:00 Yes
5 The X-Loft - IN 0097-AU20-XLFT 846-7595(dau YP2) BB C 1 10:01:57.09 0.727 00:00:20 Yes
5 Dj Loft Of Utah - UT 0016-AU20-HASH BB H 1 10:01:59.35 0.727 00:00:20 Yes
5 Swampdog DLG - MS 0074-AU20-SDOG 381x285 BB H 1 10:02:00.59 0.727 00:00:20 Yes
5 Swampdog DLG - MS 0093-IF20-SDOG 109x177 BB H 2 10:02:02.31 0.727 00:00:20 Yes
5 Zheng Family Loft - NY 0991-AU20-ZFL Lamborghini 991 BBWF H 1 10:02:02.79 0.727 00:00:20 Yes
5 Wtj Loft - TX 0115-AU20-WTJ 1453🐅 BBT H 1 10:02:04.15 0.727 00:00:20 Yes
5 Lian Loft Vladimir 59 Perez - FL 2005-AU20-LIAN The Face For Grandfather BB C 1 10:02:05.17 0.727 00:00:20 Yes
5 Andrew E. Skwiat - IN 0033-AU20-ANDY 179 x 880 BBSP H 2 10:02:05.55 0.727 00:00:20 Yes
5 S Procopoi Loft - GA 41850-AU20-ARPU Angela BC H 1 10:02:07.33 0.727 00:00:20 Yes
5 Kolvenbag & Son - PA 1402-IF20-KOLV BB C 1 10:02:08.36 0.727 00:00:20 Yes
5 New York Winter Loft - NY 1316-AU20-ARPU De KANNIBAAL+FIENEKE 5000 BC H 1 10:02:08.38 0.727 00:00:20 Yes
5 Samuel A Miller - KY 0850-AU20-FOYS BB H 1 10:02:08.40 0.727 00:00:20 Yes
5 Ken Family Loft - FL 0517-AU20-XKL BC C 1 10:02:08.42 0.727 00:00:20 Yes
5 Andrew E. Skwiat - IN 0013-AU20-ANDY 4 x 31 BBWF H 1 10:02:08.43 0.727 00:00:20 Yes
5 Tepa Sindicato - CA 0259-AU20-SG BC C 1 10:02:08.85 0.727 00:00:20 Yes
5 Bluemegantinloft - CA 0842-AU20-SFR CALIFORNIA GIRL BB H 1 10:02:09.87 0.727 00:00:20 Yes
5 Amer Loft - GA 0007-IF20-AFL 189 AFL x 9 AFL BB H 1 10:02:09.89 0.727 00:00:20 Yes
5 Cherokee Loft - MI 0637-AU20-CHER Rocket X Wonder-Polish BBWF H 1 10:02:10.01 0.727 00:00:20 Yes
5 Dfm#1 - MO 1435-IF20-BB BBWF H 1 10:02:10.65 0.727 00:00:20 Yes
5 Filipino-American Pigeon Fanciers Alliance - IL 0061-AU20-RGAB BBSP C 1 10:02:12.30 0.727 00:00:20 Yes
5 Western Loft - CA 0890-AU20-SFR BBSP H 1 10:02:13.32 0.727 00:00:20 Yes
5 PNWC - ID 1207-AU20-IDA “PAIR # J13” BC H 1 10:02:13.34 0.727 00:00:20 Yes
5 Callahan Loft - MO 0936-AU20-AA BBT C 1 10:02:13.40 0.727 00:00:20 Yes
5 Greek Connection - SC 0103-AU20-GRK Wicked Sis BB H 1 10:02:13.86 0.727 00:00:20 Yes
5 B.B.& W. - CA 20005-AU20-ARPU 02-03 /1 BCT H 1 10:02:13.94 0.727 00:00:20 Yes
5 Youngblood Loft - UT 0411-AU20-NEBO BB H 1 10:02:14.96 0.727 00:00:20 Yes
5 Sherwood Loft - UT 0204-AU20-NEBO BB H 1 10:02:14.98 0.727 00:00:20 Yes
5 Alas De Oro - NV 71049-IF20-E BBSP H 1 10:02:14.99 0.727 00:00:20 Yes
5 Yendez Loft - TX 0520-AU20-YEND YENDEZ 520 BB H 1 10:02:15.10 0.727 00:00:20 Yes
34 Q-Ba Family Loft - TX 20059-AU20-SAIN “EL Loco 😜” BBT C 1 10:02:16.41 0.726 00:00:40 Yes
34 Dave Dudley/Ron Moden - CO 20450-AU20-PUEB BB H 2 10:02:16.43 0.726 00:00:40 Yes
34 Columba Loft - GA 0156-AU20-LYNC BB C 1 10:02:16.44 0.726 00:00:40 Yes
34 A-Lo Loft/Nemelka - UT 0001-AU20-ALOL ☯️385☯️ BB C 1 10:02:16.47 0.726 00:00:40 Yes
34 Adam Hajduga - IL 0013-AU20-HAJD BC C 1 10:02:16.82 0.726 00:00:40 Yes
34 Great Wall - MS 14006-AU20-TONY BC C 1 10:02:17.85 0.726 00:00:40 Yes
34 R M C Loft - CA 300137-AU20-RMC BB H 1 10:02:17.88 0.726 00:00:40 Yes
34 Jsrl - CA 15213-AU20-JEDD BB H 1 10:02:18.95 0.726 00:00:40 Yes
34 Amer Loft - GA 0014-IF20-AFL 697 GFL x 849 GFL BBWF C 2 10:02:18.97 0.726 00:00:40 Yes
34 Iditarod Loft - MT 7529-AU20-AA BB H 1 10:02:18.99 0.726 00:00:40 Yes
34 Lian Loft Vladimir 59 Perez - FL 2034-AU20-LIAN Lulú BBT H 2 10:02:19.13 0.726 00:00:40 Yes
34 A-Lo Loft/Nemelka - UT 0016-AU20-NRPL Wanted Man DC C 2 10:02:19.40 0.726 00:00:40 Yes
34 Dj Loft Of Utah - UT 0002-AU20-HASH BB H 2 10:02:20.45 0.726 00:00:40 Yes
34 Cuevas Classic - TX 8219-AU20-DALL BBWF C 1 10:02:20.47 0.726 00:00:40 Yes
34 Flying Glory Loft - WA 28110-AU20-ARPU BC C 1 10:02:20.99 0.726 00:00:40 Yes
34 Racing Pigeon Mall - WA 1009-AU20-RPM BB C 1 10:02:22.02 0.726 00:00:40 Yes
34 Poorhouse Road Loft - VA 22514-AU20-ARPU BC H 1 10:02:22.03 0.726 00:00:40 Yes
34 Greek Connection - SC 0108-AU20-GRK Beast 2 BB H 2 10:02:22.16 0.726 00:00:40 Yes
34 Mesopotamia Loft - MN 4827-AU20-JEDD BC C 1 10:02:22.34 0.726 00:00:40 Yes
34 Wtj Loft - TX 0152-AU20-WTJ 723🐲 BB C 2 10:02:22.60 0.726 00:00:40 Yes
34 Horst Thiel - CA 4646-AU20-SRP BBSP H 1 10:02:23.64 0.726 00:00:40 Missing
34 Columba Loft - GA 0224-AU20-LYNC BB H 2 10:02:23.67 0.726 00:00:40 Yes
34 Do Drop In Loft - NC 0045-IF20-TRC Snowy River WT H 1 10:02:23.69 0.726 00:00:40 Yes
34 Evergreen Loft - WA 0503-AU20-OTC BB H 1 10:02:23.71 0.726 00:00:40 Yes
34 Billy & Ray - CO 20507-AU20-PUEB BB H 1 10:02:25.67 0.726 00:00:40 Yes
34 Dfm#1 - MO 1441-IF20-BB BC C 2 10:02:26.69 0.726 00:00:40 Yes
34 Golden State Syndicate - CA 10393-AU20-FOYS BiggieDee☯️🇵🇭 BB H 1 10:02:26.72 0.726 00:00:40 Yes
34 Dave Dudley/Ron Moden - CO 20112-AU20-PUEB BB H 1 10:02:27.74 0.726 00:00:40 Missing
34 Chen & Liu Family - CT 0059-IF20-LIU BC C 1 10:02:27.76 0.726 00:00:40 Yes
34 Alas De Oro - NV 71002-IF20-E BC C 2 10:02:27.78 0.726 00:00:40 Yes
34 Kolvenbag & Son - PA 1429-IF20-KOLV BC C 2 10:02:27.98 0.726 00:00:40 Yes
34 All Glory To God - NM 2535-AU20-ARPU BB H 1 10:02:29.36 0.726 00:00:40 Yes
34 A P C Loft - TX 20062-AU20-APC BBPD H 1 10:02:29.37 0.726 00:00:40 Yes
34 A H C Loft - FL 0466-IF20-BQC 🍊🍊🍊J15x18302🍊 BB H 1 10:02:29.41 0.726 00:00:40 Yes
34 Kolvenbag & Son - PA 1430-IF20-KOLV BCWF H 3 10:02:29.42 0.726 00:00:40 Yes
34 Joe Atkinson - OR 14377-AU20-JEDD BVR Carl BGZ C 1 10:02:29.44 0.726 00:00:40 Yes
34 Andrew E. Skwiat - IN 0005-AU20-ANDY 213387 x 1499 BBWF H 3 10:02:29.45 0.726 00:00:40 Missing
34 Steven Loft - TX 0199-AU20-CCL BBWF C 1 10:02:29.86 0.726 00:00:40 Yes
34 Whell's Loft - CA 16309-AU20-AA CHLOE BBSP H 1 10:02:29.95 0.726 00:00:40 Yes
34 Cartel Morelia - TX 20148-AU20-PDP BC H 1 10:02:30.04 0.726 00:00:40 Yes
34 Western Loft - CA 0896-AU20-SFR BB H 2 10:02:31.48 0.726 00:00:40 Yes
34 Tucson Triple Challenge - AZ 1194-AU20-JEDD BB H 1 10:02:32.51 0.726 00:00:40 Yes
34 Adam Hajduga - IL 0019-AU20-HAJD BCWF H 2 10:02:32.53 0.726 00:00:40 Yes
34 Zhengloft - FL 0038-IF20-ZHEN RDSP H 1 10:02:32.55 0.726 00:00:40 Yes
34 R & D Racing 2 - ON 4402-AU20-AA BBSP C 1 10:02:32.57 0.726 00:00:40 Yes
34 Andrew E. Skwiat - IN 0034-AU20-ANDY 179 x 880 BBWF H 4 10:02:32.93 0.726 00:00:40 Yes
34 Tepa Sindicato - CA 0280-AU20-SG BC H 2 10:02:33.97 0.726 00:00:40 Yes
34 Emerson/Donnelly - SC 0333-AU20-MERL BBSP H 1 10:02:33.99 0.726 00:00:40 Yes
34 Christopher Loft - UT 20116-AU20-GS BC H 1 10:02:34.01 0.726 00:00:40 Yes
34 John Gutierrez - NM 0232-AU20-GUTZ 19816/Intel BB H 1 10:02:35.36 0.726 00:00:40 Yes
84 Andrew E. Skwiat - IN 0115-AU20-ANDY 179 x 880 BBSP C 6 10:02:36.38 0.725 00:01:00 Yes
84 The X-Loft - IN 0096-AU20-XLFT 759-1136 BBSP H 2 10:02:36.42 0.725 00:01:00 Yes
84 Greek Connection - SC 0101-AU20-GRK WYD 1 BBWF H 4 10:02:36.59 0.725 00:01:00 Yes
84 Great Wall - MS 20002-AU20-CHAN BCWF C 2 10:02:37.63 0.725 00:01:00 Missing
84 Greek Connection - SC 0107-AU20-GRK Beast BB C 6 10:02:37.65 0.725 00:01:00 Yes
84 Kfly Racing Pigeon Loft - ID 2005-AU20-KFLY Konpea X Lenaette BB H 1 10:02:37.85 0.725 00:01:00 Yes
84 Sherwood Loft - UT 0207-AU20-NEBO BB H 2 10:02:38.86 0.725 00:01:00 Missing
84 ***bird Love To Fly*** - MN 0050-AU20-BDLV 2227x6717 Big girl 👧 BB H 1 10:02:38.89 0.725 00:01:00 Yes
84 Lamonta - OR 0004-AU20-LAM BB H 1 10:02:38.90 0.725 00:01:00 Yes
84 Keyways - ID 0017-AU20-KEYS 1306 X 862 BB H 1 10:02:38.94 0.725 00:01:00 Yes
84 A & B Of Boring Or - OR 0234-AU20-OTC BB H 1 10:02:39.45 0.725 00:01:00 Yes
84 7 Cha Brothers Loft - MN 0248-AU20-UNIT 903 X Spring Break BC C 1 10:02:40.48 0.725 00:01:00 Yes
84 Evergreen Loft - WA 0502-AU20-OTC BB C 2 10:02:40.52 0.725 00:01:00 Yes
84 7 Cha Brothers Loft - MN 0257-AU20-UNIT Turkkon X Bulldozer BB H 2 10:02:41.56 0.725 00:01:00 Yes
84 Han Lu Loft - TX 0226-AU20-LUHA BB H 1 10:02:42.60 0.725 00:01:00 Yes
84 Genesis Syndicate Loft - AZ 0522-AU20-GEN BBSP H 1 10:02:42.62 0.725 00:01:00 Yes
84 Aztec Loft - DE 0136-AU20-AZTC BB H 2 10:02:42.64 0.725 00:01:00 Yes

There are 967 bird records

Note: These Race Results are unofficial and subject to change until verified by the Race Committee and declared final.